Location: Newark
(48.1500°N, 2.9667°W)
Time: 01:20:16
(UTC+00:00)

Altair - Pass Details

Date: 27 January 2020
Orbit: 1502 x 1682 km, 47.2° (Epoch: 19 February)

Event Time Altitude Azimuth Distance (km) Brightness Sun altitude
Rises 06:55:33 0° 201° (SSW) 4,835 10.1 -8.7°
Reaches altitude 10° 06:59:07 10° 191° (SSW) 3,875 9.7 -8.2°
Maximum altitude 07:07:24 31° 134° (SE) 2,619 9.6 -6.9°
Drops below altitude 10° 07:15:48 10° 78° (ENE) 3,949 10.6 -5.6°
Sets 07:19:26 0° 69° (ENE) 4,939 11.0 -5.0°
